Погода в Тотьме

Хотите узнать прогноз погоды в Тотьме? Тогда Вам сюда: Погода в Тотьме

Поиск расширенной информации на нашем сайте:

Полезная информация:

Новости сайта



02.01.2020
Опубликован Долгосрочный прогноз погоды по городам России и ближнего зарубежья на январь 2020 года.
Карты: Прогноз на январь и февраль 2020 года, Сравнение прогнозируемой аномалии приземной температуры воздуха на январь 2020 года по разным моделям.




Погода в Тотьме - сегодня

Время (UTC), дата Ветер
(°,м/с) 
Видим.   Явления Облачность Т
(°С)
Тd
(°С)
f(%) Тe
(°С)
Pmin
(гПа)
dP
(гПа)
Po
(мм)
O2
(г/м3)
Тmin Tmax R s Состояние
почвы
21 29.11.20 130 (ЮВ) 10 км    10/8 500 м средняя 
[Sc|Ac und]
-3.7 -4.4 95 -5  1039.6  -0.1  767  314           
00 30.11.20 130 (ЮВ) 2000 м  дымка  10/8 500 м средняя 
[Sc|Ac und]
-3 -3.1 99 -4  1038.8  -0.8  766  312           
03 30.11.20 130 (ЮВ) 10 км    10/8 480 м средняя 
[Sc|Ac und]
-2.2 -2.6 97 -3  1037.9  -0.8  765  311  -4.6      равномерный
сухой снег
100% 
06 30.11.20 130 (ЮВ) 10 км    10/8 300 м средняя, верхняя 
[St|As trans|Ci]
-1.6 -2 97 -4  1037.2  -0.7  765  310           
09 30.11.20 140 (ЮВ) 10 км    10/8 450 м средняя 
[Sc|Ac und]
-0.3 -1.4 92 -3  1036.2  -0.9  764  308           
12 30.11.20 140 (ЮВ) 10 км    10/8 570 м средняя 
[Sc|Ac und]
-0.1 -1.5 90 -3  1034.2  -1.9  763  308           
15 30.11.20 160 (Ю) 10 км    10/8 500 м кучево-дожд., средняя 
[Cb cap|Ac und]
-0.2 -1.5 91 -2  1033.1  -1.1  762  307    +0  0.0     
18 30.11.20 170 (Ю) 10 км  слаб. снег  10/8 300 м средняя 
[Frnb|As op]
-0.2 -1.5 91 -3  1032.3  -0.8  761  307           
21 30.11.20 160 (Ю) 10 км  слаб. снег  10/8 270 м средняя 
[Frnb|As op]
-1.4 -2.2 94 -3  1032.3  -0.1  761  309           
00 01.12.20 160 (Ю) 10 км  слаб. снег  10/8 300 м средняя 
[Frnb|As op]
-3.1 -4.4 91 -6  1032.5  0.1  761  311           
03 01.12.20 170 (Ю) 10 км  позёмок{снег}  10/8 400 м средняя 
[Frnb|As op]
-4.3 -5.7 90 -7  1032.3  -0.3  761  312  -4.3    0.0  равномерный
сухой снег
100% 
06 01.12.20 160 (Ю) 10 км  {снег}  10/8 400 м средняя 
[Sc|As op]
-4.4 -5.8 90 -7  1032.2  -0.1  761  312  -4.6         
09 01.12.20 180 (Ю) 10 км    10/8 540 м средняя 
[Sc|As op]
-4.1 -6.2 85 -7  1032.5  0.3  761  312           
12 01.12.20 180 (Ю) 4000 м  слаб. снег  10/8 660 м средняя 
[Sc|As op]
-4.5 -6.9 83 -7  1032.8  0.3  761  313           
15 01.12.20 180 (Ю) 4000 м  слаб. снег  10/8 800 м средняя 
[Sc|As op]
-4.4 -6.6 85 -8  1033.7  0.9  762  313    -4.1  0.0     
21 01.12.20 200 (Ю) 10 км  {снег}  10/8 500 м средняя 
[Sc|As op]
-4.5 -6 89 -7  1034.6  0.4  763  313           
00 02.12.20 200 (Ю) 10 км  {снег}  10/8 450 м средняя 
[Sc|As op]
-4.4 -5.8 90 -6  1034.8  0.2  763  313           
03 02.12.20 220 (ЮЗ) 10 км    10/8 450 м средняя 
[Sc|As op]
-4.4 -5.4 93 -6  1035.1  0.3  763  313  -4.7    0.3  равномерный
сухой снег
100% 
06 02.12.20 200 (Ю) 10 км    10/8 480 м средняя 
[Sc|As op]
-4 -5 93 -6  1035.5  0.4  764  313           
09 02.12.20 200 (Ю) 4000 м  слаб. снег  10/8 480 м средняя 
[Sc|As op]
-3.6 -4.6 93 -5  1036  0.5  764  312           
12 02.12.20 200 (Ю) 4000 м  слаб. снег  10/8 330 м средняя 
[Frnb|As op]
-3.6 -4.6 93 -5  1036.6  0.6  764  313           
15 02.12.20 210 (ЮЗ) 4000 м  слаб. снег  10/8 300 м средняя 
[Frnb|As op]
-3.7 -4.8 92 -5  1037  0.4  765  313    -3.4  0.4     
18 02.12.20 200 (Ю) 10 км  {снег}  10/8 400 м средняя 
[Sc|As op]
-3.8 -5 91 -5  1037.3  0.3  765  313           
21 02.12.20 180 (Ю) 10 км    10/8 720 м средняя 
[Sc|As op]
-3.9 -5 92 -5  1037.7  0.4  765  313           
00 03.12.20 170 (Ю) 10 км    10/8 480 м средняя 
[Sc|Ac und]
-4.1 -4.9 94 -5  1037.6  -0.1  765  314           
Время (UTC), дата Ветер
(°,м/с) 
Видим.   Явления Облачность Т
(°С)
Тd
(°С)
f(%) Тe
(°С)
Pmin
(гПа)
dP
(гПа)
Po
(мм)
O2
(г/м3)
Тmin Tmax R s Состояние
почвы

Для получения пояснительной информации подведите курсор к названию столбца.

ПОГОДА в Тотьме - архив

Всё, что Вы хотите узнать о погоде в Тотьме - удобно и подробно!

Выберите нужную дату (начиная с 1 января 2019* года) и нажмите кнопку "Найти".
Будут отображены архивные сводки погоды по пункту Тотьма, начиная с указанной даты.


Отображать данные в формате CSV (для использования в таблицах Excel)


Внимание! Наш архив погоды предназначен исключительно для личного некоммерческого использования в познавательных целях. Если Вам необходимы официальные справки о состоянии погоды (для производственных, юридических, коммерческих и т.п. целей), обращайтесь в органы Росгидромета.

*Примечание: данная дата относится к архиву по метеостанциям СССР (Россия, СНГ, Балтия).
Архив по метеостанциям Зарубежной Европы и Азии (кроме Китая) хранится 10 дней, по другим регионам земного шара (Китай, Африка, Америка, Австралия, Океания) - 1 день.

Тотьма - район местоположения метеостанции


Название, широта, долгота, высота метеостанции:
Тотьма 59.9°ш. 42.8°д. 134 м над ур. моря [Российская Федерация]

Дополнительная информация

В oтличие oт бoльшинства пoгoдных сайтoв мы публикуем пoдрoбную метеoинфoрмацию в детальнoм прoфессиoнальнoм фoрмате.

Характеристики температуры и влажнoсти вoздуха измеряются на высoте 2 м в тени вдали oт зданий и деревьев.
Скoрoсть ветра измеряется на высoте 10 м (на урoвне рoста челoвека скoрoсть ветра ниже в 1.5-2 раза). Если метеoстанция нахoдится в гoрoде или в лесу, тo скoрoсть ветра занижена на 2-4 м/с пo сравнению с oткрытым местoм. Скoрoсть ветра над акватoриями крупных рек и oзёр, а также на вершинах хoлмoв на 2-5 м/с выше, чем в oбычных услoвиях.
Атмoсфернoе давление в разных тoчках местнoсти мoжет значительнo oтличаться oт давления на метеoстанции, в зависимoсти oт услoвий рельефа (при пoдъёме на 10 м давление пoнижается примернo на 1 мм рт.ст.).